SCP
0 0 0 0 0 0 0 0 0 0 0 0 0 0 0 0 0 0 0 0 0 0
0 0 0 0 0 0 0 0 0 0 0 0 0 0 0 0 0 0 0 0 0 0
0 0 0 0 0 0 0 0 0 0 0 0 0 0 0 0 0 0 0 0 0 0
0 0 0 0 0 0 0 0 0 0 0 -0 -0 -0 0 0 0 0 0 0 0 0
0 0 0 0 0 0 0 0 0 0 -0 -0 -0 -0 -0 -0 -0 0 0 0 -0 -0
0 0 0 0 0 0 0 0 0 0 -0 -0 -0 -0 -0 -0 -0 -0 -0 -0 -0 -0
0 0 0 0 -0 -0 -0 0 0 -0 -0 -0 -0 -0 -0 -0 -0 -0 -0 -0 -0 -0
0 0 0 0 0 0 0 0 0 -0 -0 -0 -0 -0 -0 -0 -0 -0 0 0 0 -0
0 0 0 0 0 0 0 0 0 -0 -0 -0 -0 -0 -0 -0 -0 0 0 0 0 0
0 0 0 0 0 0 0 0 0 0 0 -0 -0 -0 -0 -0 -0 0 0 0 0 0
0 0 0 0 0 0 0 0 0 0 0 0 0 -0 -0 -0 0 0 0 0 0 0
0 0 0 0 0 0 0 0 0 0 0 0 0 0 0 0 0 0 0 0 0 0
0 0 0 0 0 0 0 0 0 0 0 0 0 0 0 0 0 0 0 0 0 0
0 0 0 0 0 0 0 0 0 0 0 0 0 0 0 0 0 0 0 0 0 0
Wind_Speed_500mb
16 15 17 19 19 20 21 21 23 27 29 33 34 33 32 29 35 37 37 38 39 41
20 18 20 23 17 19 21 19 19 25 31 36 36 35 32 33 33 37 40 40 40 42
17 17 20 25 20 18 17 14 19 24 31 36 37 37 39 37 35 39 42 45 43 44
13 14 18 24 26 21 15 15 19 23 30 35 38 38 38 39 42 44 45 45 47 47
7 10 16 22 27 21 14 16 21 27 33 38 40 43 43 44 45 47 49 50 52 50
5 8 16 22 28 23 17 19 25 30 34 39 42 43 45 47 47 48 49 51 53 54
5 8 15 20 25 27 21 24 30 34 39 42 42 45 48 49 49 49 49 51 55 56
9 11 14 17 20 23 24 22 29 35 39 43 47 50 53 54 53 53 54 54 58 60
14 14 14 12 13 15 19 22 27 34 38 40 45 52 55 59 59 56 56 58 59 63
11 14 14 10 11 11 16 20 24 30 36 38 43 49 56 60 62 59 57 57 60 68
10 12 10 11 9 13 18 21 24 26 33 40 41 44 51 56 59 62 60 61 61 69
14 11 8 9 9 14 23 21 24 27 31 37 41 43 47 54 61 62 64 62 61 67
8 14 9 10 14 18 22 25 26 29 32 36 43 46 44 50 60 64 65 64 64 65
14 12 13 19 23 25 25 26 29 35 37 38 42 48 45 47 56 60 65 64 65 66
Wind_Direction_500mb
33 38 31 28 32 31 27 30 26 24 25 23 21 17 11 8 0 358 356 357 354 353
35 32 28 25 25 23 12 16 13 19 16 15 12 10 11 6 360 356 352 349 349 348
36 25 26 17 19 13 10 7 9 11 7 7 7 7 6 4 0 356 355 349 345 344
29 22 14 12 16 7 11 5 12 8 1 4 5 5 5 1 359 357 353 348 344 340
22 15 4 8 9 20 24 17 14 8 1 2 3 1 3 1 357 351 349 348 345 339
358 358 360 3 12 22 28 29 21 12 9 8 3 1 1 356 353 349 348 346 342 339
330 342 358 1 16 29 39 42 28 21 18 14 7 3 0 356 351 347 346 344 341 339
326 338 351 359 11 26 32 31 25 22 19 16 11 6 2 358 352 347 344 344 344 342
320 324 336 353 10 26 31 24 19 17 15 10 6 4 1 359 354 348 344 343 344 345
311 328 335 350 8 24 14 12 12 10 7 6 360 356 356 357 355 350 348 344 343 344
354 346 348 351 350 358 356 357 1 1 357 358 356 345 347 349 349 350 349 347 342 342
25 354 348 352 348 352 355 346 348 351 344 340 346 336 337 341 344 345 344 346 341 341
339 355 328 330 324 320 332 332 334 337 333 329 334 337 327 337 338 338 336 340 340 341
292 293 306 305 306 299 304 320 324 323 327 318 325 336 326 331 333 332 330 334 336 339
Wind_Speed_850mb
16 15 17 19 19 20 21 21 23 27 29 33 34 33 32 29 35 37 37 38 39 41
20 18 20 23 17 19 21 19 19 25 31 36 36 35 32 33 33 37 40 40 40 42
17 17 20 25 20 18 17 14 19 24 31 36 37 37 39 37 35 39 42 45 43 44
13 14 18 24 26 21 15 15 19 23 30 35 38 38 38 39 42 44 45 45 47 47
7 10 16 22 27 21 14 16 21 27 33 38 40 43 43 44 45 47 49 50 52 50
5 8 16 22 28 23 17 19 25 30 34 39 42 43 45 47 47 48 49 51 53 54
5 8 15 20 25 27 21 24 30 34 39 42 42 45 48 49 49 49 49 51 55 56
9 11 14 17 20 23 24 22 29 35 39 43 47 50 53 54 53 53 54 54 58 60
14 14 14 12 13 15 19 22 27 34 38 40 45 52 55 59 59 56 56 58 59 63
11 14 14 10 11 11 16 20 24 30 36 38 43 49 56 60 62 59 57 57 60 68
10 12 10 11 9 13 18 21 24 26 33 40 41 44 51 56 59 62 60 61 61 69
14 11 8 9 9 14 23 21 24 27 31 37 41 43 47 54 61 62 64 62 61 67
8 14 9 10 14 18 22 25 26 29 32 36 43 46 44 50 60 64 65 64 64 65
14 12 13 19 23 25 25 26 29 35 37 38 42 48 45 47 56 60 65 64 65 66
Wind_Direction_850mb
33 38 31 28 32 31 27 30 26 24 25 23 21 17 11 8 0 358 356 357 354 353
35 32 28 25 25 23 12 16 13 19 16 15 12 10 11 6 360 356 352 349 349 348
36 25 26 17 19 13 10 7 9 11 7 7 7 7 6 4 0 356 355 349 345 344
29 22 14 12 16 7 11 5 12 8 1 4 5 5 5 1 359 357 353 348 344 340
22 15 4 8 9 20 24 17 14 8 1 2 3 1 3 1 357 351 349 348 345 339
358 358 360 3 12 22 28 29 21 12 9 8 3 1 1 356 353 349 348 346 342 339
330 342 358 1 16 29 39 42 28 21 18 14 7 3 0 356 351 347 346 344 341 339
326 338 351 359 11 26 32 31 25 22 19 16 11 6 2 358 352 347 344 344 344 342
320 324 336 353 10 26 31 24 19 17 15 10 6 4 1 359 354 348 344 343 344 345
311 328 335 350 8 24 14 12 12 10 7 6 360 356 356 357 355 350 348 344 343 344
354 346 348 351 350 358 356 357 1 1 357 358 356 345 347 349 349 350 349 347 342 342
25 354 348 352 348 352 355 346 348 351 344 340 346 336 337 341 344 345 344 346 341 341
339 355 328 330 324 320 332 332 334 337 333 329 334 337 327 337 338 338 336 340 340 341
292 293 306 305 306 299 304 320 324 323 327 318 325 336 326 331 333 332 330 334 336 339